"Pseudo-MPEC" for P11bV3h

Created 2021 Jan 16 20:07:16 UT using Find_Orb

Click here for an explanation of pseudo-MPECs

 
 Astrometry: 
     P11bV3h  C2021 01 12rhag.\AstrometrycVLOY9:L=j32i1*7Hx,us$redacted;_$P'?F51
     P11bV3h  C2021 01 12=5click[E(0%A%+^IJ8*/)R-i'_+@=6G]S79h\Ay;bXhereGfor'F51
     P11bV3h  C2021 01 12?Ks#ZVUhy]n_B4X6_f'xT=s-Y\eY]lRexplanation.?Uiue1uH%F51
     P11bV3h ^C2021 01 15.45327810 06 15.754+55 12 25.67   ~1FDq 22.36GVNEOCP568
     P11bV3h ^C2021 01 15.45449010 06 15.689+55 12 26.86   ~1FDq 21.96GVNEOCP568
     P11bV3h ^C2021 01 15.45570410 06 15.571+55 12 28.07   ~1FDq 22.35GVNEOCP568
     P11bV3h KC2021 01 16.27200210 05 17.70 +55 25 43.1    ~1G77 21.94GVNEOCPV06
     P11bV3h KC2021 01 16.27754910 05 17.31 +55 25 48.7    ~1G77 21.62GVNEOCPV06
     P11bV3h KC2021 01 16.28309410 05 16.88 +55 25 54.0    ~1G77 22.06GVNEOCPV06

Station data:
(568) Mauna Kea  (N19.826116 W155.472200)  US/Hawaii.
(F51) Pan-STARRS 1, Haleakala  (N20.707235 W156.255910)  US/Hawaii.
   Observers N. Primak, A. Schultz, S. Watters, J. Thiel, T. Goggia. Measurer
   PS1 Science Consortium. 1.8-m Ritchey-Chrétien + CCD.
(V06) Catalina Sky Survey-Kuiper  (N32.416847 W110.732550)  US/Arizona.
   Observers T. A. Pruyne, B. M. Africano, E. J. Christensen, G. A. Farneth,
   D. C. Fuls, A. R. Gibbs, A. D. Grauer, H. Gröller, J. A. Johnson, R. A.
   Kowalski, S. M. Larson, G. J. Leonard, D. Rankin, R. L. Seaman, F. C.
   Shelly. 1.55-m reflector + CCD.

Orbital elements:  P11bV3h
   Perihelion 2020 Jan 2.716166 +/- 15.4515 TT = 17:11:16 (JD 2458851.216166)
Epoch 2021 Jan 16.0 TT = JDT 2459230.5   Earth MOID: 0.7273   AutoNEOCP
M 155.86627050 +/- 7.2398180        (J2000 ecliptic)
n   0.41094888 +/- 0.00301191       Peri.  272.48195 +/- 5.5811033
a   1.79175039 +/- 0.00875307       Node    51.64454 +/- 0.6341922
e   0.0988154 +/- 0.00327029        Incl.   22.72734 +/- 0.1726026
P   2.40/876.00d           H 19.7   G  0.15   U  8.9  
q 1.61469779 +/- 0.00622564    Q 1.96880298 +/- 0.0139947
From 9 observations 2021 Jan. 12-16; mean residual 0".10
Residuals in arcseconds: 
210112 F51  .09-  .00     210115 568  .06-  .02+    210116 V06  .16-  .01+    
210112 F51  .01-  .18-    210115 568  .15+  .01-    210116 V06  .11+  .10+    
210112 F51  .10+  .18+    210115 568  .09-  .02-    210116 V06  .05+  .11-    

Ephemerides (geocentric):
Date (UTC) HH   RA              Dec         delta   r     elong  mag " sig PA
---- -- -- --  -------------   -----------  ------ ------ -----  --- ---- ---
2021 01 16 20  10 04 35.621   +55 34 41.75  1.1136 1.9563 137.6 22.4 .560  64
2021 01 16 21  10 04 32.488   +55 35 21.54  1.1136 1.9563 137.7 22.4 .590  64
2021 01 16 22  10 04 29.347   +55 36 01.28  1.1135 1.9563 137.7 22.4 .619  64
2021 01 16 23  10 04 26.200   +55 36 40.99  1.1135 1.9563 137.7 22.4 .650  64
2021 01 17 00  10 04 23.046   +55 37 20.66  1.1134 1.9563 137.7 22.4 .680  64
2021 01 17 01  10 04 19.884   +55 38 00.28  1.1134 1.9563 137.7 22.4 .711  64
2021 01 17 02  10 04 16.716   +55 38 39.87  1.1133 1.9564 137.7 22.4 .743  64
2021 01 17 03  10 04 13.540   +55 39 19.41  1.1133 1.9564 137.7 22.4 .775  64
2021 01 17 04  10 04 10.357   +55 39 58.92  1.1132 1.9564 137.7 22.4 .808  63
2021 01 17 05  10 04 07.168   +55 40 38.38  1.1132 1.9564 137.7 22.4 .841  63
2021 01 17 06  10 04 03.971   +55 41 17.80  1.1131 1.9564 137.7 22.4 .874  63
2021 01 17 07  10 04 00.767   +55 41 57.18  1.1131 1.9565 137.7 22.4 .908  63
2021 01 17 08  10 03 57.556   +55 42 36.52  1.1130 1.9565 137.8 22.4 .943  63
2021 01 17 09  10 03 54.338   +55 43 15.82  1.1130 1.9565 137.8 22.4 .978  63
2021 01 17 10  10 03 51.113   +55 43 55.07  1.1129 1.9565 137.8 22.4 1.01  63
2021 01 17 11  10 03 47.881   +55 44 34.28  1.1129 1.9565 137.8 22.4 1.05  63
2021 01 17 12  10 03 44.641   +55 45 13.46  1.1128 1.9565 137.8 22.4 1.09  63
2021 01 17 13  10 03 41.395   +55 45 52.58  1.1128 1.9566 137.8 22.4 1.12  63
2021 01 17 14  10 03 38.142   +55 46 31.67  1.1127 1.9566 137.8 22.4 1.16  63
2021 01 17 15  10 03 34.882   +55 47 10.72  1.1127 1.9566 137.8 22.4 1.20  63
2021 01 17 16  10 03 31.614   +55 47 49.72  1.1126 1.9566 137.8 22.4 1.23  63
2021 01 17 17  10 03 28.340   +55 48 28.68  1.1126 1.9566 137.8 22.4 1.27  63
2021 01 17 18  10 03 25.059   +55 49 07.60  1.1126 1.9566 137.8 22.4 1.31  63
2021 01 17 19  10 03 21.770   +55 49 46.48  1.1125 1.9567 137.9 22.4 1.35  63
2021 01 17 20  10 03 18.475   +55 50 25.31  1.1125 1.9567 137.9 22.4 1.39  63
2021 01 17 21  10 03 15.173   +55 51 04.10  1.1124 1.9567 137.9 22.4 1.43  63
2021 01 17 22  10 03 11.863   +55 51 42.85  1.1124 1.9567 137.9 22.4 1.47  63
2021 01 17 23  10 03 08.547   +55 52 21.55  1.1123 1.9567 137.9 22.4 1.52  63
2021 01 18 00  10 03 05.224   +55 53 00.21  1.1123 1.9568 137.9 22.4 1.56  63
2021 01 18 01  10 03 01.894   +55 53 38.83  1.1123 1.9568 137.9 22.4 1.60  63
2021 01 18 02  10 02 58.556   +55 54 17.40  1.1122 1.9568 137.9 22.4 1.64  63
2021 01 18 03  10 02 55.212   +55 54 55.94  1.1122 1.9568 137.9 22.4 1.69  63
2021 01 18 04  10 02 51.861   +55 55 34.42  1.1121 1.9568 137.9 22.4 1.73  62
2021 01 18 05  10 02 48.503   +55 56 12.87  1.1121 1.9568 137.9 22.4 1.77  62
2021 01 18 06  10 02 45.138   +55 56 51.27  1.1121 1.9569 137.9 22.4 1.82  62
2021 01 18 07  10 02 41.766   +55 57 29.62  1.1120 1.9569 138.0 22.4 1.86  62
2021 01 18 08  10 02 38.387   +55 58 07.94  1.1120 1.9569 138.0 22.4 1.91  62
2021 01 18 09  10 02 35.002   +55 58 46.21  1.1119 1.9569 138.0 22.4 1.96  62
2021 01 18 10  10 02 31.609   +55 59 24.43  1.1119 1.9569 138.0 22.4 2.00  62
2021 01 18 11  10 02 28.209   +56 00 02.61  1.1119 1.9569 138.0 22.4 2.05  62
2021 01 18 12  10 02 24.803   +56 00 40.75  1.1118 1.9570 138.0 22.4 2.10  62
2021 01 18 13  10 02 21.390   +56 01 18.84  1.1118 1.9570 138.0 22.4 2.14  62
2021 01 18 14  10 02 17.969   +56 01 56.88  1.1117 1.9570 138.0 22.4 2.19  62
2021 01 18 15  10 02 14.542   +56 02 34.88  1.1117 1.9570 138.0 22.4 2.24  62
2021 01 18 16  10 02 11.108   +56 03 12.84  1.1117 1.9570 138.0 22.4 2.29  62
2021 01 18 17  10 02 07.667   +56 03 50.75  1.1116 1.9570 138.0 22.4 2.34  62
2021 01 18 18  10 02 04.219   +56 04 28.62  1.1116 1.9571 138.0 22.4 2.39  62
2021 01 18 19  10 02 00.765   +56 05 06.44  1.1116 1.9571 138.0 22.4 2.44  62